User: anonymous   Login
Location: Newark
(41.8083°N, 72.2500°W)
Time: 08:23:02
(UTC+00:00)
Language:

deb Explorer IX - Orbit

View from above orbital plane
View from above orbital plane
View from above satellite
View from above satellite

Ground track
Ground track

The orbit data is extracted from the following two-line orbital elements,

1 00085U 61004C   21336.65719892  .00004816  00000-0  10411-2 0  9994
2 00085  38.7620 177.0564 0375578  98.2881 266.0625 14.22825572  7004
Epoch (UTC): 02 December 2021 15:46:21
Eccentricity: 0.0375578
inclination: 38.7620°
perigee height: 545 km
apogee height: 1086 km
right ascension of ascending node: 177.0564°
argument of perigee: 98.2881°
revolutions per day: 14.22825572
mean anomaly at epoch: 266.0625°
orbit number at epoch: 700

The dashed part of the orbit path shows where the satellite is in the earth's shadow,  

DLR